Location: Alpha Ridge Park
(39.3209°N, 76.9128°W)
Time: 21:29:47
(UTC-04:00)

Vanguard 2 Rocket - Pass Details

Date: 24 May 2019
Orbit: 554 x 3326 km, 32.9° (Epoch: 15 June)

Event Time Altitude Azimuth Distance (km) Brightness Sun altitude
Rises 08:48:33 0° 260° (W) 6,962 10.9 32.8°
Reaches altitude 10° 08:53:44 10° 258° (WSW) 5,647 10.5 33.8°
Maximum altitude 09:09:12 64° 182° (S) 2,079 9.3 36.8°
Drops below altitude 10° 09:17:53 10° 103° (ESE) 3,331 11.0 38.5°
Sets 09:20:10 0° 100° (E) 4,030 11.1 38.9°
